Weather History for Westfield, MA

Change the Weather History Date:

Thursday, April 11, 2013

  Actual Average Record
Temperature  
Mean Temperature 46 °F -  
Max Temperature 54 °F 55 °F 73 °F (2011)
Min Temperature 37 °F 33 °F 19 °F (2007)
Degree Days  
Heating Degree Days 18    
Moisture  
Dew Point 40 °F    
Average Humidity 74    
Maximum Humidity 94    
Minimum Humidity 44    
Precipitation  
Precipitation 0.06 in - - ()
Sea Level Pressure  
Sea Level Pressure 29.96 in    
Wind  
Wind Speed 9 mph (NNE)    
Max Wind Speed 17 mph    
Max Gust Speed 25 mph    
Visibility 9 miles    
Events Rain    
Averages and records for this station are not official NWS values.
T = Trace of Precipitation, MM = Missing Value Source: NWS Daily Summary

Daily Weather History Graph

Daily Weather History Graph

Search for Another Location

Airport:

Trip Planner

Search our weather history database for the weather conditions in past years. The results will help you decide how hot, cold, wet, or windy it might be!

Date:

Astronomy

Apr. 11, 2013 Rise Set
Actual Time 6:16 AM EDT 7:28 PM EDT
Civil Twilight 5:47 AM EDT 7:56 PM EDT
Nautical Twilight 5:13 AM EDT 8:31 PM EDT
Astronomical Twilight 4:36 AM EDT 9:07 PM EDT
Moon 6:44 AM EDT (4/11) 9:01 PM EDT (4/11)
Length of Visible Light 14h 09m
Length of Day
13h 11m
New Moon, 2% of the Moon is Illuminated
Apr 11
New Moon
Apr 18
First Quarter
Apr 25
Full
May 2
Last Quarter
May 9
New

Hourly Weather History & Observations

Time (EDT) Temp. Windchill Dew Point Humidity Pressure Visibility Wind Dir Wind Speed Gust Speed Precip Events Conditions
12:50 AM 51.8 °F - 50.0 °F 94% 29.86 in 2.0 mi NE 3.5 mph - 0.01 in Rain Light Rain
12:53 AM 52.0 °F - 50.0 °F 93% 29.87 in 2.0 mi NE 3.5 mph - 0.02 in Rain Light Rain
1:21 AM 51.8 °F - 48.2 °F 88% 29.86 in 3.0 mi North 15.0 mph - 0.01 in Rain Light Rain
1:38 AM 51.8 °F - 48.2 °F 88% 29.85 in 5.0 mi NNE 9.2 mph - 0.01 in Rain Light Rain
1:53 AM 50.0 °F - 48.0 °F 93% 29.85 in 6.0 mi North 13.8 mph - 0.01 in   Overcast
2:08 AM 50.0 °F - 46.4 °F 87% 29.84 in 6.0 mi North 12.7 mph - N/A   Overcast
2:33 AM 48.2 °F - 46.4 °F 93% 29.84 in 9.0 mi North 12.7 mph - 0.00 in Rain Light Rain
2:53 AM 48.9 °F - 46.0 °F 90% 29.85 in 10.0 mi North 12.7 mph - 0.00 in   Overcast
3:43 AM 48.2 °F - 44.6 °F 87% 29.85 in 9.0 mi North 13.8 mph 20.7 mph N/A   Overcast
3:53 AM 48.0 °F - 45.0 °F 89% 29.84 in 10.0 mi North 12.7 mph - N/A   Overcast
4:05 AM 48.2 °F - 44.6 °F 87% 29.85 in 10.0 mi North 12.7 mph - N/A   Overcast
4:53 AM 48.0 °F - 44.1 °F 86% 29.88 in 10.0 mi NNE 9.2 mph - N/A   Overcast
5:53 AM 48.0 °F - 44.1 °F 86% 29.92 in 10.0 mi North 5.8 mph - N/A   Overcast
6:09 AM 46.4 °F 41.9 °F 44.6 °F 93% 29.92 in 10.0 mi North 9.2 mph - N/A   Overcast
6:36 AM 46.4 °F 42.9 °F 44.6 °F 93% 29.93 in 10.0 mi North 6.9 mph - N/A   Overcast
6:53 AM 46.9 °F - 43.0 °F 86% 29.95 in 10.0 mi NNE 11.5 mph - N/A   Overcast
7:01 AM 46.4 °F 41.1 °F 42.8 °F 87% 29.95 in 10.0 mi NNE 11.5 mph - N/A   Overcast
7:53 AM 48.9 °F - 41.0 °F 74% 29.93 in 10.0 mi NNE 12.7 mph 18.4 mph N/A   Mostly Cloudy
8:09 AM 48.2 °F - 39.2 °F 71% 29.95 in 10.0 mi NNE 9.2 mph - N/A   Mostly Cloudy
8:53 AM 48.9 °F - 39.0 °F 69% 29.98 in 10.0 mi NNE 9.2 mph - N/A   Overcast
9:30 AM 50.0 °F - 39.2 °F 66% 29.98 in 10.0 mi NE 8.1 mph - N/A   Mostly Cloudy
9:53 AM 51.1 °F - 39.0 °F 63% 29.99 in 10.0 mi NNE 4.6 mph - N/A   Overcast
10:53 AM 51.1 °F - 37.9 °F 61% 30.02 in 10.0 mi NE 8.1 mph - N/A   Overcast
11:08 AM 51.8 °F - 37.4 °F 58% 30.01 in 10.0 mi NNE 10.4 mph - N/A   Overcast
11:53 AM 53.1 °F - 37.9 °F 57% 30.01 in 10.0 mi NNE 10.4 mph - N/A   Overcast
12:53 PM 53.1 °F - 37.9 °F 57% 30.04 in 10.0 mi NNE 9.2 mph - N/A   Overcast
1:53 PM 52.0 °F - 37.0 °F 57% 30.03 in 10.0 mi NE 12.7 mph 19.6 mph N/A   Overcast
2:53 PM 54.0 °F - 33.1 °F 45% 30.03 in 10.0 mi North 12.7 mph - N/A   Overcast
3:53 PM 50.0 °F - 28.9 °F 44% 30.02 in 10.0 mi NNE 13.8 mph 19.6 mph N/A   Overcast
4:53 PM 50.0 °F - 28.9 °F 44% 30.04 in 10.0 mi NNE 8.1 mph - N/A   Overcast
5:53 PM 48.0 °F - 28.9 °F 48% 30.04 in 10.0 mi NNE 13.8 mph - N/A   Overcast
6:53 PM 46.9 °F - 30.9 °F 54% 30.05 in 10.0 mi NNE 17.3 mph 25.3 mph N/A   Overcast
7:53 PM 44.1 °F 37.4 °F 28.0 °F 53% 30.08 in 10.0 mi NNE 13.8 mph 23.0 mph N/A   Overcast
8:53 PM 43.0 °F 38.8 °F 28.0 °F 56% 30.10 in 10.0 mi NNE 6.9 mph 17.3 mph 0.00 in   Overcast
9:53 PM 39.9 °F 33.4 °F 34.0 °F 79% 30.12 in 10.0 mi North 10.4 mph - 0.01 in   Overcast
10:53 PM 39.0 °F 32.8 °F 32.0 °F 76% 30.14 in 7.0 mi North 9.2 mph - 0.01 in Rain Rain
11:53 PM 37.9 °F 31.5 °F 34.0 °F 86% 30.13 in 10.0 mi NNE 9.2 mph - 0.01 in   Overcast